STARLINK-37144, 68556

Orbit data source: Space-Track

STARLINK-37144, 68556 is a payload satellite owned by SpaceX/Seattle (US) in LEO that was launched on Thu, 02 Apr 2026 UTC via an FALCON 9 launch vehicle from the Air Force Eastern Test Range (AFETR). Payload-class satellites include a variety of spacecraft equipped with specific instruments for various scientific and technological missions. These include communications satellites like Starlink; space stations such as the ISS; scientific satellites like the Hubble; Earth observation satellites from companies like Planet Labs, Umbra, and HawkEye 360; GPS; miniature CubeSats for education and research; and military/defense satellites.

Loading next visibility...
Identifier
68556, 2026-070Q
Orbit
LEO
Country
Flag of USUS
Related business
Manufacturer
SpaceX/Seattle
Mission
Operational spacecraft
Bus & Motor
STARLINK V2MO, Unknown motor
Mass
575 kg wet, ~530 kg dry
Launch date (UTC)
2026-04-02 (2 months ago)
Launch vehicle
FALCON 9
Launch site
Air Force Eastern Test Range (AFETR)
Object type
Payload
Rocket body
Debris
Shape & HBR
Unknown shape, 14.5 m
Radar Cross Section
Large (>1 m²)

Expand to show TLE details & history
Last TLE update: 6 hours ago

TLE from 6 hours ago
0 STARLINK-37144
1 68556U 26070Q   26150.84572927  .00044002  00000-0  13042-2 0  9995
2 68556  53.1612 340.2252 0001415 139.5698 220.5410 15.34438190  9146
Epoch: 2026-05-30T20:17Z
TLE epoch observation values (Epoch: 2026-05-30T20:17:51.008Z)
Latitude
-0.00004°
Longitude
147.40673°
Altitude
464.227 km
Speed
7.635 km/s
True Right ascension
22h 40m 54s
True Declination
0° 00' 00"
Sunlit
Object was in daylight at epoch
Visualization orbit readout
Latitude
Unknown
Longitude
Unknown
Altitude
Unknown
Speed
Unknown
Apparent Right ascension
Unknown
Apparent Declination
Unknown
Sunlit
N/A
Visualization observer readout
Local Sidereal Time
11:50:04
Azimuth
Unknown
Elevation
Unknown
Doppler factor
Unknown
Orbital elements
Apogee altitude
463.814 km
Perigee altitude
461.878 km
Semi-major axis
6,840.983 km
Eccentricity
0.00014
Inclination
53.1612°
RAAN
340.2252°
Arg. of periapsis
139.5698°
True anomaly
220.53046°
Mean anomaly
220.541°
Eccentric anomaly
220.53573°
Mean motion
3.83588 °/min
Orbital period
93.85 mins
BSTAR
0.0013042
Loading maneuver chart data...
Computing Atmospheric mass density...
Loading historical data...
Loading historical data...
Loading historical data...
Loading historical data...
Loading historical data...
Loading historical data...
Loading historical data...

Documentation

Showing up to 5 results
|